SCP
0 0 0 0 0 0 0 0 0 0 0 0 0 0 0 0 0 0 0 0 0 0 0 0 0 0 0 0 0 0 0 0 0 0 0 0 0 0 0 0 0 0 0 0
0 0 0 0 0 0 0 0 0 0 0 0 0 0 0 0 0 0 0 0 0 0 0 0 0 0 0 0 0 0 0 0 0 0 0 0 0 0 0 0 0 0 0 0
0 0 0 0 0 0 0 0 0 0 0 0 0 0 0 0 0 0 0 0 0 0 0 0 0 0 0 0 0 0 0 0 0 0 0 0 0 0 0 0 0 0 0 0
0 0 0 0 0 0 0 0 0 0 0 0 0 0 0 0 0 0 0 0 0 0 0 0 0 0 0 0 0 0 0 0 0 0 0 0 0 0 0 0 0 0 0 0
0 0 0 0 0 0 0 0 0 0 0 0 0 0 0 0 0 0 0 0 0 0 0 0 0 0 0 0 0 0 0 0 0 0 0 0 0 0 0 0 0 0 0 0
0 0 0 0 0 0 0 0 0 0 0 0 0 0 0 0 0 0 0 0 0 0 0 0 0 0 0 0 0 0 0 0 0 0 0 0 0 0 0 0 0 0 0 0
0 0 0 0 0 0 0 0 0 0 0 0 0 0 0 0 0 0 0 0 0 0 0 0 0 0 0 0 0 0 0 0 0 0 0 0 0 0 0 0 0 0 0 0
0 0 0 0 0 0 0 0 0 0 0 0 0 0 0 0 0 0 0 0 0 0 0 0 0 0 0 0 0 0 0 0 0 0 0 0 0 0 0 0 0 0 0 0
0 0 0 0 0 0 0 0 0 0 0 0 0 0 0 0 0 0 0 0 0 0 0 0 0 0 0 0 0 0 0 0 0 0 0 0 0 0 0 0 0 0 0 0
0 0 0 0 0 0 0 0 0 0 0 0 0 0 0 0 0 0 0 0 0 0 0 0 0 0 0 0 0 0 0 0 0 0 0 0 0 0 0 0 0 0 0 0
0 0 0 0 0 0 0 0 0 0 0 0 0 0 0 0 0 0 0 0 0 0 0 0 0 0 0 0 0 0 0 0 0 0 0 0 0 0 0 0 0 0 0 0
0 0 0 0 0 0 0 0 0 0 0 0 0 0 0 0 0 0 0 0 0 0 0 0 0 0 0 0 0 0 0 0 0 0 0 0 0 0 0 0 0 0 0 0
0 0 0 0 0 0 0 0 0 0 0 0 0 0 0 0 0 0 0 0 0 0 0 0 0 0 0 0 0 0 0 0 0 0 0 0 0 0 0 0 0 0 0 0
0 0 0 0 0 0 0 0 0 0 0 0 0 0 0 0 0 0 0 0 0 0 0 0 0 0 0 0 0 0 0 0 0 0 0 0 0 0 0 0 0 0 0 0
0 0 0 0 0 0 0 0 0 0 0 0 0 0 0 0 0 0 0 0 0 0 0 0 0 0 0 0 0 0 0 0 0 0 0 0 0 0 0 0 0 0 0 0
0 0 0 0 0 0 0 0 0 0 0 0 -0 -0 0 0 0 0 0 0 0 0 0 0 0 0 0 0 0 0 0 0 0 0 0 0 0 0 0 0 0 0 0 0
0 0 0 0 0 0 0 0 0 0 0 0 -0 -0 0 0 0 0 0 0 0 0 0 0 0 0 0 0 0 0 0 0 0 0 0 0 0 0 0 0 0 0 0 0
0 0 0 0 0 0 0 0 0 0 0 0 0 0 0 0 0 0 0 0 0 0 0 0 0 0 0 0 0 0 0 0 0 0 0 0 0 0 0 0 0 0 0 0
0 0 0 0 0 0 0 0 0 0 0 0 0 0 0 0 0 0 0 0 0 0 0 0 0 0 0 0 0 0 0 0 0 0 0 0 0 0 0 0 0 0 0 0
0 0 0 0 0 0 0 0 0 0 0 0 0 0 0 0 0 0 0 0 0 0 0 0 0 0 0 0 0 0 0 0 0 0 0 0 0 0 0 0 0 0 0 0
0 0 0 0 0 0 0 0 0 0 0 0 0 0 0 0 0 0 0 0 0 0 0 0 0 0 0 0 0 0 0 0 0 0 0 0 0 0 0 0 0 0 0 0
0 0 0 0 0 0 0 0 0 0 0 0 0 0 0 0 0 0 0 0 0 0 0 0 0 0 0 0 0 0 0 0 0 0 0 0 0 0 0 0 0 0 0 0
0 0 0 0 0 0 0 0 0 0 0 0 0 0 0 0 0 0 0 0 0 0 0 0 0 0 0 0 0 0 0 0 0 0 0 0 0 0 0 0 0 0 0 0
0 0 0 0 0 0 0 0 0 0 0 0 0 0 0 0 0 0 0 0 0 0 0 0 0 0 0 0 0 0 0 0 0 0 0 0 0 0 0 0 0 0 0 0
0 0 0 0 0 0 0 0 0 0 0 0 0 0 0 0 0 0 0 0 0 0 0 0 0 0 0 0 0 0 0 0 0 0 0 0 0 0 0 0 0 0 0 0
0 0 0 0 0 0 0 0 0 0 0 0 0 0 0 0 0 0 0 0 0 0 0 0 0 0 0 0 0 0 0 0 0 0 0 0 0 0 0 0 0 0 0 0
Wind_Speed
2 4 3 6 6 4 4 3 2 4 2 3 4 5 6 3 4 5 5 6 6 7 5 3 3 4 4 3 3 3 3 3 3 2 2 2 1 1 2 2 2 2 2 2
4 2 5 3 4 3 3 2 2 3 1 2 3 5 5 4 6 7 8 8 8 6 3 4 4 4 5 5 4 4 4 4 3 2 2 2 2 1 0 1 2 2 2 2
4 4 2 3 2 3 3 5 5 3 1 2 1 5 4 3 3 3 5 6 6 8 7 5 5 5 5 5 6 5 4 4 3 3 3 3 2 2 2 2 2 2 2 1
3 3 2 3 3 5 4 5 5 3 2 2 0 4 6 3 3 4 5 5 6 7 6 5 5 6 6 7 5 5 5 4 3 4 4 4 2 1 1 1 0 1 2 1
3 2 2 3 4 5 4 1 3 2 2 1 1 2 8 2 4 6 6 6 6 6 6 6 7 7 7 6 5 5 4 4 3 4 4 4 2 1 0 0 1 1 2 1
3 2 3 4 1 3 4 5 5 5 4 1 3 3 7 4 6 5 6 6 6 6 6 5 5 4 4 4 4 4 4 3 3 4 4 4 4 3 2 1 0 1 1 1
3 3 1 2 2 2 4 5 3 4 3 5 2 3 9 6 5 5 6 6 5 5 5 5 4 5 5 5 5 4 5 3 3 4 4 4 4 4 4 2 2 1 0 1
1 4 2 1 4 4 3 7 6 4 4 4 2 5 8 4 3 3 3 4 3 4 5 5 6 6 6 7 6 6 6 5 4 4 4 3 3 2 2 2 2 2 1 1
4 4 3 1 2 7 5 3 5 6 2 1 5 6 8 2 2 1 0 1 2 3 4 6 6 6 6 7 7 8 7 5 5 5 4 3 3 3 2 2 1 1 1 0
6 3 3 2 3 3 4 7 5 5 3 3 5 4 5 4 3 2 1 2 3 2 3 4 4 5 6 6 5 5 6 6 5 4 4 4 3 3 2 2 2 1 1 0
3 3 3 2 2 4 3 3 4 4 4 4 3 7 5 5 4 4 4 3 3 3 3 3 4 4 5 4 5 5 5 4 4 4 4 3 3 2 2 2 2 2 1 1
2 4 2 4 3 2 3 5 6 4 3 4 3 8 4 3 3 3 3 3 2 2 2 2 2 3 3 4 4 4 4 4 4 4 4 4 3 3 3 2 2 2 2 2
4 5 2 4 4 1 1 3 4 5 4 4 4 7 3 2 2 2 3 3 2 1 1 1 1 1 3 4 4 4 4 4 4 4 4 4 3 3 3 3 2 2 2 1
5 4 6 7 6 3 2 3 4 5 4 5 7 7 6 4 3 3 3 3 2 1 1 1 1 2 2 3 4 4 3 4 4 4 4 4 4 4 4 3 2 2 2 2
4 3 3 4 3 2 4 5 5 7 7 8 7 7 8 6 5 4 3 2 1 1 1 1 2 2 2 2 2 3 3 3 4 4 4 4 3 3 2 2 2 2 2 2
3 3 1 2 1 2 3 5 5 5 5 6 4 6 6 4 2 2 2 1 2 3 2 2 2 2 2 3 3 3 3 3 4 4 3 3 3 3 3 2 2 2 1 1
2 3 2 3 3 2 4 5 5 4 4 5 7 7 2 2 3 4 3 3 3 4 3 2 3 3 3 3 3 3 3 3 4 4 3 2 3 3 3 3 2 2 2 1
5 4 3 1 2 4 6 2 3 3 2 3 3 3 3 4 4 3 2 3 3 3 3 3 3 2 2 2 2 2 2 3 4 3 3 3 3 3 3 3 3 2 2 2
4 6 4 2 2 6 6 2 3 3 3 3 4 4 2 1 2 3 2 2 3 3 3 3 3 3 2 2 2 3 2 3 3 3 3 3 3 3 3 3 3 2 2 2
4 4 5 3 2 5 6 3 1 3 3 3 2 3 1 2 0 4 3 1 1 1 1 1 1 2 2 1 2 3 2 2 3 4 4 3 4 4 4 4 3 2 2 2
2 2 3 4 4 7 6 2 2 3 6 3 2 3 3 4 5 3 1 1 0 0 1 2 2 2 1 1 3 3 2 3 3 2 2 2 3 4 4 3 2 2 2 1
5 4 4 4 4 8 3 3 5 6 2 1 2 2 3 2 1 1 0 0 1 1 1 2 2 1 0 2 3 2 3 3 1 2 2 2 2 2 2 3 2 2 2 2
5 7 6 8 7 4 2 4 3 1 2 2 2 2 2 2 1 1 0 1 1 1 1 1 2 0 1 1 2 3 3 1 1 1 1 2 2 2 2 3 3 2 2 2
3 2 3 3 6 4 3 2 2 2 2 3 2 1 2 2 2 1 1 1 1 0 0 1 2 1 1 1 1 2 1 1 2 1 1 1 1 1 1 2 2 2 2 2
4 3 2 4 5 4 4 4 4 2 1 1 1 1 2 3 2 2 2 1 1 1 0 1 1 1 1 1 1 1 1 2 2 1 1 1 1 1 1 1 2 3 3 4
5 6 6 7 6 5 5 4 3 2 2 2 1 1 1 2 2 2 2 1 1 0 0 1 0 1 1 1 1 1 1 2 2 2 1 1 1 1 1 1 1 1 2 3
Wind_Direction
56 86 182 204 191 188 169 174 227 252 230 173 222 248 256 222 199 211 217 216 217 223 228 200 183 169 157 153 155 158 150 140 126 113 108 94 61 21 22 28 42 50 56 64
49 255 225 194 178 174 170 189 241 290 252 180 239 267 262 213 209 209 210 216 217 221 216 201 185 171 175 176 178 174 171 163 160 146 133 129 123 84 30 11 32 36 48 52
181 239 180 156 170 174 206 194 206 220 3 32 15 313 285 261 232 226 221 217 213 211 210 202 192 192 185 188 190 187 182 175 167 138 107 85 64 46 31 18 11 6 29 54
229 254 162 161 193 170 233 223 190 177 127 293 67 290 286 260 266 240 233 223 217 214 207 199 197 197 196 199 187 180 174 173 166 148 141 140 143 164 216 229 301 346 16 43
247 222 167 197 213 178 209 121 132 148 149 352 342 215 285 300 259 250 236 229 222 208 201 202 202 201 201 193 180 176 167 168 164 158 158 149 150 172 155 56 34 10 2 15
246 246 194 200 187 152 130 74 61 52 73 285 242 191 276 249 232 249 235 229 221 206 200 203 202 192 194 184 173 167 167 173 169 166 166 166 168 165 152 166 153 341 344 356
323 312 273 158 116 63 93 91 37 3 8 257 252 204 251 253 237 227 225 225 218 198 191 193 191 189 188 183 182 176 172 179 175 171 177 180 179 176 184 195 197 203 290 320
176 283 261 188 175 173 163 142 158 195 225 275 291 236 255 262 272 250 225 209 195 190 195 199 202 198 192 190 185 182 187 189 180 181 189 185 176 176 194 200 188 195 218 237
177 251 285 220 179 141 137 163 164 137 165 265 279 286 300 273 325 350 146 150 189 203 205 209 207 199 191 192 193 190 189 189 188 191 185 181 180 183 197 200 180 185 217 214
163 217 284 297 83 52 136 143 109 123 159 255 289 279 261 278 272 281 267 238 236 221 222 220 209 202 197 195 191 183 185 190 190 186 187 184 187 190 188 174 176 181 198 170
149 164 295 13 173 183 111 109 115 123 154 164 254 271 242 239 239 226 240 244 232 217 223 227 219 205 194 184 178 178 181 179 177 180 180 177 182 174 163 170 186 184 179 167
143 132 225 262 264 186 165 166 149 157 212 181 193 265 281 255 254 229 248 258 242 218 220 232 219 190 176 181 181 180 182 184 186 178 174 180 176 166 171 189 199 185 180 183
134 119 91 340 340 13 138 161 155 136 132 165 187 261 306 350 340 278 251 262 254 235 219 205 169 180 189 190 189 186 187 189 182 171 172 175 180 183 194 203 198 186 182 182
114 127 169 199 217 207 218 199 163 145 167 204 220 245 291 305 291 284 277 272 265 230 216 193 200 215 204 195 190 186 189 184 172 167 172 182 195 195 198 199 191 189 179 174
103 152 213 231 233 206 218 227 198 194 198 201 228 228 252 256 247 249 251 257 236 260 264 218 212 221 208 186 185 185 182 176 169 167 180 194 195 183 174 174 176 173 171 179
82 144 148 285 264 223 245 253 221 215 215 219 232 254 254 264 274 271 264 237 239 245 237 226 218 207 204 197 192 187 185 178 160 169 193 188 169 165 170 178 168 158 166 173
116 125 115 274 303 5 268 242 210 206 206 191 216 238 260 284 268 248 238 227 230 239 228 213 216 217 219 208 192 194 190 160 155 173 182 178 171 170 177 171 157 172 183 176
148 133 138 234 16 238 246 250 192 186 241 215 231 253 233 237 266 273 237 218 232 235 227 216 210 213 220 200 177 161 144 153 161 172 180 179 168 173 175 165 175 186 175 180
156 140 130 139 226 278 290 268 188 184 265 239 227 252 267 306 17 323 294 251 232 229 219 214 203 187 174 167 159 135 135 150 158 179 188 186 173 172 170 179 193 187 171 185
77 108 123 138 183 244 256 270 230 128 271 273 213 224 224 107 72 274 299 315 291 290 178 156 139 124 129 160 149 141 154 157 187 200 197 187 175 175 182 193 196 187 180 197
88 89 143 170 212 258 261 281 102 163 243 259 199 204 177 186 215 245 309 340 341 33 101 119 119 131 176 151 137 152 164 204 215 194 177 177 179 184 185 184 177 165 169 171
178 169 186 159 196 252 256 138 181 219 234 214 197 192 190 218 259 299 317 347 27 48 69 110 121 142 145 134 142 159 211 226 192 155 166 183 189 187 167 165 168 161 160 162
198 192 187 188 212 239 221 216 245 214 231 242 220 225 184 202 245 265 292 328 12 42 64 92 121 92 356 168 165 187 235 214 147 152 190 203 189 181 173 171 170 166 167 173
260 184 168 241 264 266 267 278 291 251 251 265 235 196 176 205 216 238 268 293 316 335 96 108 113 118 292 276 225 221 227 164 147 175 214 205 186 188 173 170 171 176 189 199
231 178 191 249 272 298 288 255 250 264 280 295 332 136 175 172 196 199 198 215 253 284 33 115 141 182 245 269 276 274 190 151 152 182 207 201 194 192 189 190 196 202 214 210
203 187 189 228 226 211 249 253 234 233 245 230 222 248 183 167 193 208 208 197 182 190 101 87 115 205 253 264 275 280 193 161 161 185 216 207 203 200 194 200 294 291 270 276